TimeMST,TemperatureF,Dew PointF,Humidity,Sea Level PressureIn,VisibilityMPH,Wind Direction,Wind SpeedMPH,Gust SpeedMPH,PrecipitationIn,Events,Conditions,WindDirDegrees,DateUTC
12:53 AM,37.0,34.0,89,29.85,10.0,WSW,8.1,-,0.00,,Overcast,250,2013-11-05 07:53:00
1:53 AM,35.1,33.1,92,29.83,10.0,Variable,3.5,-,N/A,,Scattered Clouds,0,2013-11-05 08:53:00
2:53 AM,35.1,33.1,92,29.84,10.0,SW,6.9,-,N/A,,Overcast,230,2013-11-05 09:53:00
3:53 AM,34.0,32.0,92,29.86,10.0,SW,4.6,-,N/A,,Partly Cloudy,220,2013-11-05 10:53:00
4:53 AM,33.1,30.0,89,29.92,10.0,SW,9.2,-,N/A,,Overcast,230,2013-11-05 11:53:00
5:53 AM,32.0,28.0,85,29.94,10.0,SW,6.9,-,N/A,,Mostly Cloudy,230,2013-11-05 12:53:00
6:53 AM,32.0,26.1,79,29.96,10.0,SSW,6.9,-,N/A,,Overcast,210,2013-11-05 13:53:00
7:53 AM,30.9,25.0,79,30.01,10.0,SW,12.7,-,N/A,,Scattered Clouds,220,2013-11-05 14:53:00
8:53 AM,35.1,26.1,70,30.01,10.0,SSW,12.7,-,N/A,,Mostly Cloudy,210,2013-11-05 15:53:00
9:53 AM,37.9,24.1,57,30.01,10.0,WSW,15.0,-,N/A,,Clear,240,2013-11-05 16:53:00
10:53 AM,39.9,21.9,49,30.01,10.0,SW,18.4,25.3,N/A,,Clear,230,2013-11-05 17:53:00
11:53 AM,41.0,18.0,40,29.99,10.0,WSW,20.7,27.6,N/A,,Clear,250,2013-11-05 18:53:00
12:53 PM,42.1,15.1,34,29.98,10.0,WSW,20.7,28.8,N/A,,Clear,240,2013-11-05 19:53:00
1:53 PM,42.1,16.0,35,29.99,10.0,SW,18.4,27.6,N/A,,Clear,230,2013-11-05 20:53:00
2:53 PM,42.1,16.0,35,30.00,10.0,WSW,19.6,26.5,N/A,,Clear,250,2013-11-05 21:53:00
3:53 PM,42.1,14.0,32,30.03,10.0,WSW,15.0,21.9,N/A,,Clear,240,2013-11-05 22:53:00
4:53 PM,37.9,12.0,35,30.08,10.0,West,11.5,23.0,N/A,,Clear,260,2013-11-05 23:53:00
5:53 PM,35.1,12.9,40,30.14,10.0,West,12.7,-,N/A,,Clear,270,2013-11-06 00:53:00
6:53 PM,33.1,10.0,38,30.19,10.0,NW,10.4,-,N/A,,Clear,310,2013-11-06 01:53:00
7:53 PM,30.0,9.0,41,30.24,10.0,NNW,4.6,-,N/A,,Clear,340,2013-11-06 02:53:00
8:53 PM,28.9,9.0,43,30.26,10.0,Calm,Calm,-,N/A,,Clear,0,2013-11-06 03:53:00
9:53 PM,24.1,12.0,60,30.30,10.0,Calm,Calm,-,N/A,,Clear,0,2013-11-06 04:53:00
10:53 PM,23.0,12.0,63,30.31,10.0,Calm,Calm,-,N/A,,Clear,0,2013-11-06 05:53:00
11:53 PM,21.0,12.0,68,30.33,10.0,North,3.5,-,N/A,,Clear,350,2013-11-06 06:53:00